DW4669 Weather Reports


Display with metric or nautical units.
time (UTC)temp
F
wind
direction
speed
MPH
gust
MPH
rain 1hr
in
rain 24hr
in
rain mn
in
humidity
%
barometer
mb
20260504050513 38 0 0.0 0.0 0.00 0.00 0.00 85 1011.3
20260504045510 38 0 0.0 0.0 0.00 0.00 0.00 85 1011.1
20260504045011 38 0 0.0 0.0 0.00 0.00 0.00 85 1011.1
20260504044528 38 0 0.0 0.0 0.00 0.00 0.00 85 1011.2
20260504044012 38 0 0.0 0.0 0.00 0.00 0.00 85 1011.1
20260504043515 38 0 0.0 0.0 0.00 0.00 0.00 85 1011.0
20260504043030 38 0 0.0 0.0 0.00 0.00 0.00 85 1010.9
20260504042513 38 0 0.0 0.0 0.00 0.00 0.00 85 1011.1
20260504042012 38 0 0.0 0.0 0.00 0.00 0.00 85 1011.0
20260504041540 38 0 0.0 0.0 0.00 0.00 0.00 84 1011.0
20260504041010 39 0 0.0 0.0 0.00 0.00 0.00 84 1010.9
20260504040511 39 0 0.0 0.0 0.00 0.00 0.00 84 1011.0
20260504040032 39 0 0.0 0.0 0.00 0.00 0.00 84 1010.9
20260504035510 39 0 0.0 0.0 0.00 0.00 0.00 84 1010.9
20260504035014 39 0 0.0 0.0 0.00 0.00 0.00 84 1010.9
20260504034538 39 0 0.0 0.0 0.00 0.00 0.00 84 1010.9
20260504034013 39 0 0.0 0.0 0.00 0.00 0.00 84 1010.9
20260504033551 39 0 0.0 0.0 0.00 0.00 0.00 83 1010.9
20260504033028 39 0 0.0 0.0 0.00 0.00 0.00 83 1010.9
20260504032515 40 0 0.0 0.0 0.00 0.00 0.00 83 1010.9
20260504032012 40 0 0.0 0.0 0.00 0.00 0.00 83 1010.9
20260504031528 40 0 0.0 0.0 0.00 0.00 0.00 82 1010.9
20260504031012 40 0 0.0 0.0 0.00 0.00 0.00 81 1010.9
20260504030511 40 0 0.0 0.0 0.00 0.00 0.00 81 1010.9
20260504030032 40 0 0.0 0.0 0.00 0.00 0.00 80 1010.9
20260504025514 40 0 0.0 0.0 0.00 0.00 0.00 80 1010.9
20260504025015 40 0 0.0 0.0 0.00 0.00 0.00 79 1010.9
20260504024530 41 0 0.0 0.0 0.00 0.00 0.00 79 1011.0
20260504024013 41 0 0.0 0.0 0.00 0.00 0.00 78 1011.2
20260504023513 41 0 0.0 0.0 0.00 0.00 0.00 78 1011.1
20260504023030 41 0 0.0 0.0 0.00 0.00 0.00 78 1011.0
20260504022510 41 0 0.0 0.0 0.00 0.00 0.00 78 1011.2
20260504022011 41 0 0.0 0.0 0.00 0.00 0.00 76 1011.1
20260504021530 42 0 0.0 0.0 0.00 0.00 0.00 75 1011.1
20260504021013 42 0 0.0 0.0 0.00 0.00 0.00 75 1011.1
20260504020514 42 0 0.0 0.0 0.00 0.00 0.00 75 1011.1
20260504020036 42 0 0.0 0.0 0.00 0.00 0.00 75 1011.1
20260504015512 43 0 0.0 0.0 0.00 0.00 0.00 74 1010.9
20260504015014 43 0 0.0 0.0 0.00 0.00 0.00 73 1010.9
20260504014531 43 0 0.0 0.0 0.00 0.00 0.00 71 1010.8
20260504014015 44 0 0.0 0.0 0.00 0.00 0.00 72 1010.8
20260504013513 44 0 0.0 0.0 0.00 0.00 0.00 71 1010.9
20260504013032 44 0 0.0 0.0 0.00 0.00 0.00 70 1010.8
20260504012511 44 0 0.0 0.0 0.00 0.00 0.00 70 1010.9
20260504012011 44 0 0.0 0.0 0.00 0.00 0.00 69 1010.9
20260504011529 45 0 0.0 0.0 0.00 0.00 0.00 68 1011.0
20260504011010 45 0 0.0 0.0 0.00 0.00 0.00 67 1010.9
20260504010512 46 0 0.0 0.0 0.00 0.00 0.00 67 1010.8
20260504010032 46 0 0.0 0.0 0.00 0.00 0.00 64 1010.7
20260504005513 47 0 0.0 0.0 0.00 0.00 0.00 64 1010.6
20260504005014 47 0 0.0 0.0 0.00 0.00 0.00 63 1010.6
20260504004531 48 0 0.0 0.0 0.00 0.00 0.00 62 1010.4
20260504004011 49 0 0.0 0.0 0.00 0.00 0.00 58 1010.5
20260504003510 50 0 0.0 0.0 0.00 0.00 0.00 58 1010.5
20260504003028 51 0 0.0 0.0 0.00 0.00 0.00 54 1010.4
20260504002513 51 0 0.0 0.0 0.00 0.00 0.00 53 1010.3
20260504002015 52 0 0.0 1.0 0.00 0.00 0.00 48 1010.2
20260504001535 52 0 0.0 3.0 0.00 0.00 0.00 48 1010.2
20260504001014 53 0 0.0 5.0 0.00 0.00 0.00 48 1010.2
20260504000511 53 0 2.0 5.0 0.00 0.00 0.00 47 1010.1
20260504000030 54 0 1.0 6.0 0.00 0.00 0.00 46 1010.1
20260503235513 55 278 2.0 8.0 0.00 0.00 0.00 44 1010.0
20260503235010 55 309 2.0 8.0 0.00 0.00 0.00 43 1009.9
20260503234529 55 290 2.0 11.0 0.00 0.00 0.00 42 1009.8
20260503234013 55 300 1.0 11.0 0.00 0.00 0.00 42 1009.9
20260503233510 56 301 3.0 11.0 0.00 0.00 0.00 42 1009.7
20260503233031 56 341 2.0 10.0 0.00 0.00 0.00 42 1009.6
20260503232517 56 271 4.0 10.0 0.00 0.00 0.00 43 1009.6
20260503232012 56 311 4.0 9.0 0.00 0.00 0.00 40 1009.6
20260503231531 56 329 1.0 6.0 0.00 0.00 0.00 42 1009.5
20260503231011 56 316 0.0 8.0 0.00 0.00 0.00 42 1009.5
20260503230514 56 323 3.0 8.0 0.00 0.00 0.00 40 1009.4
20260503230038 56 318 2.0 6.0 0.00 0.00 0.00 43 1009.4
20260503225513 56 313 2.0 15.0 0.00 0.00 0.00 41 1009.3
20260503225011 57 306 5.0 17.0 0.00 0.00 0.00 37 1009.3
20260503224530 57 352 6.0 17.0 0.00 0.00 0.00 39 1009.3
20260503224013 57 350 3.0 10.0 0.00 0.00 0.00 41 1009.2
20260503223516 57 292 1.0 8.0 0.00 0.00 0.00 45 1009.3
20260503223030 57 258 1.0 8.0 0.00 0.00 0.00 40 1009.2
20260503222512 57 0 2.0 10.0 0.00 0.00 0.00 41 1009.1
20260503222013 57 328 1.0 10.0 0.00 0.00 0.00 39 1009.1
20260503221532 58 307 5.0 15.0 0.00 0.00 0.00 38 1009.0
20260503221012 58 313 5.0 15.0 0.00 0.00 0.00 38 1009.0
20260503220513 58 304 4.0 16.0 0.00 0.00 0.00 37 1009.0
20260503220031 58 323 4.0 16.0 0.00 0.00 0.00 37 1009.1
20260503215514 58 309 6.0 15.0 0.00 0.00 0.00 36 1009.2
20260503215013 57 300 5.0 11.0 0.00 0.00 0.00 38 1009.2
20260503214537 57 338 3.0 14.0 0.00 0.00 0.00 39 1009.1
20260503214014 57 319 6.0 14.0 0.00 0.00 0.00 36 1009.1
20260503213514 57 315 7.0 14.0 0.00 0.00 0.00 37 1009.1
20260503213028 58 325 5.0 13.0 0.00 0.00 0.00 37 1009.1
20260503212515 58 286 6.0 15.0 0.00 0.00 0.00 37 1009.0
20260503212014 58 339 5.0 15.0 0.00 0.00 0.00 36 1008.9
20260503211530 59 294 4.0 12.0 0.00 0.00 0.00 36 1009.0
20260503211018 58 313 5.0 14.0 0.00 0.00 0.00 35 1008.9
20260503210510 58 307 6.0 14.0 0.00 0.00 0.00 35 1008.9
20260503210030 59 304 5.0 15.0 0.00 0.00 0.00 34 1008.9
20260503205512 58 346 6.0 15.0 0.00 0.00 0.00 36 1009.0
20260503205012 58 313 4.0 12.0 0.00 0.00 0.00 36 1009.0
20260503204530 58 317 5.0 13.0 0.00 0.00 0.00 36 1009.0
20260503204013 59 314 6.0 16.0 0.00 0.00 0.00 33 1009.2
20260503203514 58 287 4.0 16.0 0.00 0.00 0.00 36 1009.1
20260503203035 58 308 8.0 16.0 0.00 0.00 0.00 37 1009.2
20260503202512 57 325 6.0 16.0 0.00 0.00 0.00 37 1009.2
20260503202016 58 326 6.0 14.0 0.00 0.00 0.00 37 1009.1
20260503201530 58 304 6.0 15.0 0.00 0.00 0.00 37 1009.2
20260503201014 58 283 6.0 15.0 0.00 0.00 0.00 38 1009.2
20260503200511 57 332 8.0 23.0 0.00 0.00 0.00 37 1009.2
20260503200029 58 314 8.0 23.0 0.00 0.00 0.00 35 1009.2
20260503195513 58 338 8.0 14.0 0.00 0.00 0.00 41 1009.2
20260503195017 58 302 6.0 16.0 0.00 0.00 0.00 36 1009.3
20260503194528 57 326 5.0 16.0 0.00 0.00 0.00 43 1009.5
20260503194015 57 286 7.0 13.0 0.00 0.00 0.00 40 1009.5
20260503193512 57 304 5.0 13.0 0.00 0.00 0.00 40 1009.5
20260503193041 56 306 7.0 15.0 0.00 0.00 0.00 43 1009.6
20260503192514 56 307 5.0 15.0 0.00 0.00 0.00 40 1009.7
20260503192012 56 311 6.0 14.0 0.00 0.00 0.00 38 1009.8
20260503191600 56 316 5.0 17.0 0.00 0.00 0.00 38 1009.8
20260503191012 56 294 6.0 19.0 0.00 0.00 0.00 43 1009.8
20260503190513 56 319 8.0 19.0 0.00 0.00 0.00 39 1009.9
20260503190034 57 299 3.0 11.0 0.00 0.00 0.00 43 1009.8
20260503185511 57 301 4.0 13.0 0.00 0.00 0.00 45 1009.9
20260503185014 57 294 5.0 14.0 0.00 0.00 0.00 49 1010.0
20260503184528 56 169 7.0 14.0 0.00 0.00 0.00 44 1010.0
20260503184014 56 317 6.0 14.0 0.00 0.00 0.00 42 1010.0
20260503183515 55 312 4.0 15.0 0.00 0.00 0.00 44 1010.1
20260503183030 54 303 7.0 15.0 0.00 0.00 0.00 44 1010.1
20260503182512 54 323 7.0 17.0 0.00 0.00 0.00 39 1010.1
20260503182013 55 315 5.0 17.0 0.00 0.00 0.00 46 1010.2
20260503181544 53 5 8.0 17.0 0.00 0.00 0.00 44 1010.2
20260503181014 54 313 6.0 16.0 0.00 0.00 0.00 42 1010.3
20260503180514 54 312 3.0 16.0 0.00 0.00 0.00 42 1010.3
20260503180033 54 294 7.0 13.0 0.00 0.00 0.00 50 1010.3
20260503175512 54 313 4.0 17.0 0.00 0.00 0.00 45 1010.3
20260503175016 52 324 6.0 17.0 0.00 0.00 0.00 44 1010.3
20260503174539 52 313 4.0 13.0 0.00 0.00 0.00 46 1010.4
20260503174012 52 302 5.0 12.0 0.00 0.00 0.00 46 1010.4
20260503173514 52 306 6.0 12.0 0.00 0.00 0.00 49 1010.5
20260503173030 51 347 4.0 12.0 0.00 0.00 0.00 46 1010.6
20260503172513 51 302 3.0 16.0 0.00 0.00 0.00 49 1010.7
20260503172015 51 344 5.0 16.0 0.00 0.00 0.00 50 1010.6
20260503171530 51 305 5.0 11.0 0.00 0.00 0.00 52 1010.7
20260503171014 51 339 5.0 11.0 0.00 0.00 0.00 49 1010.8
20260503170511 51 352 4.0 11.0 0.00 0.00 0.00 47 1010.9
20260503151014 48 334 8.0 13.0 0.00 0.00 0.00 49 1011.3
20260503150511 49 322 5.0 13.0 0.00 0.00 0.00 47 1011.1
20260503131014 45 317 4.0 12.0 0.00 0.00 0.00 63 1011.5
20260503130514 45 327 5.0 13.0 0.00 0.00 0.00 64 1011.5
20260503110510 40 317 2.0 5.0 0.00 0.00 0.00 72 1011.0
20260503090511 41 321 1.0 9.0 0.00 0.01 0.00 70 1010.3
20260503081536 42 0 3.0 10.0 0.00 0.04 0.00 66 1010.4
20260503081010 42 317 3.0 10.0 0.00 0.04 0.00 66 1010.4
20260503080511 42 313 2.0 13.0 0.00 0.04 0.00 66 1010.3
20260503072513 43 306 3.0 10.0 0.00 0.05 0.00 63 1010.3
20260503072010 43 321 3.0 10.0 0.00 0.05 0.00 63 1010.4
20260503071531 43 325 3.0 9.0 0.00 0.05 0.00 62 1010.3
20260503071011 43 315 2.0 10.0 0.00 0.05 0.00 62 1010.4
20260503070514 43 316 2.0 11.0 0.00 0.05 0.00 62 1010.3
20260503055011 45 0 0.0 9.0 0.00 0.07 0.00 61 1010.7
20260503054544 45 315 0.0 9.0 0.00 0.07 0.00 60 1010.7
20260503054011 45 0 0.0 6.0 0.00 0.07 0.00 60 1010.7
20260503053511 45 0 0.0 8.0 0.00 0.07 0.00 60 1010.7
20260503053032 45 0 2.0 8.0 0.00 0.07 0.00 59 1010.8
20260503052512 45 0 2.0 8.0 0.00 0.07 0.00 60 1010.8